#timestamp,LO_Frequency,Hit,StdDev 
1576116015.2,286046996.7,N
1576116035.0,286046998.6,N
1576116036.0,286046998.6,N
1576116055.8,286047000.1,N
1576116075.6,286047000.4,N
1576116095.5,286047000.6,N
1576116115.3,286047001.9,N
1576116135.1,286047000.6,N
1576116155.9,286046998.5,N
1576116175.7,286047002.3,N
1576116195.6,286047002.3,N
1576116215.4,286047001.6,N
1576116235.2,286047002.6,N
1576116255.1,286047000.9,N
1576116256.0,286047000.9,N
1576116275.8,286046998.1,N
1576116295.6,286047000.9,N
1576116315.5,286047000.6,N
1576116335.3,286047000.7,N
1576116355.2,286047000.1,N
1576116375.9,286047000.5,N
1576116395.7,286046999.9,N
1576116415.6,286046998.2,N
1576116435.4,286046998.6,N
1576116455.2,286047000.2,N
1576116475.1,286047001.0,N
1576116476.0,286047001.0,N
1576116495.8,286047000.4,N
1576116515.7,286046998.5,N
1576116535.5,286047000.4,N
1576116555.3,286047002.4,N
1576116575.2,286047002.6,N
1576116595.0,286047003.8,N
1576116595.9,286047003.8,N
1576116615.7,286047004.0,N
1576116635.6,286047004.3,N
1576116655.4,286047003.1,N
1576116675.3,286047001.4,N
1576116695.1,286047002.1,N
1576116696.0,286047002.1,N
1576116715.8,286047001.3,N
1576116735.7,286047000.3,N
1576116755.5,286047001.6,N
1576116775.3,286047002.4,N
1576116795.2,286047001.7,N
1576116815.0,286047000.5,N
1576116815.9,286047000.5,N
1576116835.8,286046999.4,N
1576116855.6,286046998.4,N
1576116875.4,286046996.6,N
1576116895.3,286046998.9,N
1576116915.1,286046998.8,N
1576116935.8,286046996.8,N
1576116955.7,286046998.2,N
1576116975.5,286046998.5,N
1576116995.4,286046999.9,N
1576117015.2,286047002.3,N
1576117035.0,286047002.0,N
1576117035.9,286047002.0,N
1576117055.8,286047002.5,N
1576117075.6,286047002.3,N
1576117095.4,286047002.6,N
1576117115.3,286047002.1,N
1576117135.1,286047001.8,N
1576117155.9,286047003.9,N
1576117175.7,286047004.1,N
1576117195.5,286047001.5,N
1576117215.4,286047004.0,N
1576117235.2,286047006.0,Y
1576117255.0,286047003.7,P
1576117256.0,286047003.7,N
1576117275.8,286047003.5,N
1576117295.6,286047005.6,Y
1576117315.5,286047002.7,P
1576117335.3,286047001.3,P
1576117355.1,286047004.2,P
1576117375.9,286047003.8,Y
1576117395.7,286046999.4,P
1576117415.6,286046998.7,N
1576117435.4,286046998.5,N
1576117455.2,286046997.2,N
1576117475.1,286046995.0,N
1576117476.0,286046995.0,N
1576117495.8,286046995.6,N
1576117515.6,286046997.2,N
1576117535.5,286046996.8,N
1576117555.3,286046997.2,N
1576117575.2,286046997.8,N
1576117595.9,286046996.1,N
1576117615.7,286046996.9,N
1576117635.6,286046997.0,N
1576117655.4,286046999.6,N
1576117675.2,286046998.7,N
1576117695.1,286046996.4,N
1576117696.0,286046996.4,N
1576117715.8,286046994.6,Y
1576117735.7,286046995.6,P
1576117755.5,286046997.3,N
1576117775.3,286046997.6,N
1576117795.2,286046996.8,Y
1576117815.0,286047002.6,P
1576117815.9,286047002.6,N
1576117835.7,286047004.2,N
1576117855.6,286047005.9,N
1576117875.4,286047004.5,N
1576117895.3,286047006.7,N
1576117915.1,286047004.9,N
1576117916.0,286047004.9,N
1576117935.8,286047003.8,N
1576117955.7,286047005.1,N
1576117975.5,286047007.5,Y
1576117995.3,286047002.7,P
1576118015.2,286047000.2,N
1576118035.0,286047001.3,N
1576118035.9,286047001.3,N
1576118055.8,286047001.6,N
1576118075.6,286047001.3,N
1576118095.4,286047003.5,Y
1576118115.3,286047001.8,P
1576118135.1,286047004.4,P
1576118155.8,286047002.6,N
1576118175.7,286047002.4,N
1576118195.5,286047001.0,N
1576118215.4,286047002.7,N
1576118235.2,286047002.0,N
1576118255.0,286046999.7,N
1576118255.9,286046999.7,N
1576118275.8,286046998.1,N
1576118295.6,286047000.4,N
1576118315.4,286046998.7,N
1576118335.3,286046996.8,N
1576118355.1,286046998.8,N
1576118375.9,286046996.5,N
1576118395.7,286047001.1,N
1576118415.5,286046999.9,N
1576118435.4,286047002.2,N
1576118455.2,286046999.7,N
1576118475.0,286046999.9,N
1576118475.9,286046999.9,N
1576118495.8,286047004.1,N
1576118515.6,286047002.8,N
1576118535.5,286047000.2,N
1576118555.3,286046999.2,N
1576118575.1,286046998.2,N
1576118595.9,286047000.2,N
1576118615.7,286047000.0,N
1576118635.5,286047000.4,N
1576118655.4,286047000.4,N
1576118675.2,286046996.6,N
1576118695.0,286046996.7,N
1576118695.9,286046996.7,N
1576118715.8,286046997.7,N
1576118735.6,286046996.5,N
1576118755.5,286046995.3,N
1576118775.3,286046998.0,N
1576118795.1,286046996.3,N
1576118815.9,286046995.9,N
1576118835.7,286046994.9,N
1576118855.5,286046995.0,N
1576118875.4,286046999.5,N
1576118895.2,286046996.9,N
1576118915.1,286046993.3,N
1576118916.0,286046993.3,N
1576118935.8,286046993.8,N
1576118955.6,286046994.8,N
1576118975.5,286046995.8,N
1576118995.3,286046997.5,N
1576119015.1,286046996.7,N
1576119035.9,286046998.8,N
1576119055.7,286046999.2,N
1576119075.6,286046996.8,N
1576119095.4,286046996.8,N
1576119115.2,286046999.6,N
1576119135.1,286047001.0,N
1576119136.0,286047001.0,N
1576119155.8,286046999.8,N
1576119175.6,286047000.5,N
1576119195.5,286046998.7,N
1576119215.3,286046999.1,N
1576119235.2,286047001.0,N
1576119255.9,286046998.1,N
1576119275.7,286046996.8,N
1576119295.6,286046996.7,N
1576119315.4,286046998.7,N
1576119335.2,286046997.0,N
1576119355.1,286046997.8,N
1576119356.0,286046997.8,N
1576119375.8,286046999.6,N
1576119395.7,286046997.6,N
1576119415.5,286046997.7,N
1576119435.3,286046999.5,N
1576119455.2,286046995.0,N
1576119475.0,286046996.0,N
1576119475.9,286046996.0,N
1576119495.8,286046995.7,N
1576119515.6,286046993.5,Y
1576119535.4,286046995.0,P
1576119555.3,286046996.2,N
1576119575.1,286046995.5,P
1576119595.8,286046993.3,Y
